Regional Weather Roundup
Issued by NWS

Home | Current Version | Previous Version | Graphics & Text | Print | Product List | Glossary On
Versions: 1 2 3 4 5 6 7 8 9 10 11 12 13 14 15 16 17 18 19 20 21 22 23 24 25 26 27 28 29 30 31 32 33 34 35 36 37 38 39 40 41 42 43 44 45 46 47 48 49 50
000
ASUS43 KLOT 270408
RWRIL

ILLINOIS REGIONAL WEATHER ROUNDUP
NATIONAL WEATHER SERVICE CHICAGO/ROMEOVILLE IL
1100 PM CDT WED APR 26 2017

NOTE: "FAIR" INDICATES FEW OR NO CLOUDS BELOW 12,000 FEET WITH NO
SIGNIFICANT WEATHER AND/OR OBSTRUCTIONS TO VISIBILITY.

* THESE STATIONS ARE NOT UNDER NWS QUALITY CONTROL. THEY ALSO MAY NOT
  REPORT WEATHER SUCH AS PRECIPITATION OR FOG.

ILZ001-002-007-009-015-016-024-270500-
NORTHWEST ILLINOIS

CITY           SKY/WX    TMP DP  RH WIND       PRES   REMARKS
MOLINE         LGT RAIN  47  44  90 N9        29.48F
STERLING*      LGT RAIN  51  48  89 NW9       29.47F
SAVANNA*       DRIZZLE   48  45  87 NW8       29.48F
$$

ILZ003-004-008-010-011-017-018-270500-
NORTH CENTRAL ILLINOIS

CITY           SKY/WX    TMP DP  RH WIND       PRES   REMARKS
ROCKFORD       LGT RAIN  52  50  93 N3        29.49F FOG
FREEPORT*      CLOUDY    48  46  90 NW7       29.49F
ROCHELLE*      RAIN      50  50  98 NW6       29.47F
DE KALB*       DRIZZLE   52  51  96 NW6       29.47F
PERU*          LGT RAIN  51  49  95 NW7       29.47F
$$

ILZ005-006-012>014-019>023-270500-
NORTHEAST ILLINOIS

CITY           SKY/WX    TMP DP  RH WIND       PRES   REMARKS
CHICAGO-OHARE  LGT RAIN  61  57  87 CALM      29.44F
CHICAGO-MIDWAY LGT RAIN  64  61  90 SE6       29.45F FOG
AURORA         LGT RAIN  56  54  93 CALM      29.46F FOG
LANSING*       RAIN      62  62 100 SE8       29.46F
JOLIET*        RAIN      61  61  99 CALM      29.47R
WAUKEGAN       LGT RAIN  59  56  89 CALM      29.45F FOG
DUPAGE AIRPORT LGT RAIN  58  57  97 N5        29.44F FOG
KANKAKEE*      RAIN      60  59  97 S9        29.50R
WHEELING       LGT RAIN  61  59  93 CALM      29.46F
MORRIS*        RAIN      58  56  95 CALM      29.45S
ROMEOVILLE*    RAIN      59  59 100 CALM      29.47R
NORTHERLY ISL    N/A     58  55  90 CALM        N/A
$$

LMZ740>746-270500-
SOUTHERN LAKE MICHIGAN

STATION/POSITION SKY/WX   TEMP    WIND        PRES    VSBY  WAVE
                          AIR SEA DIR/SP/G                  HT/PER
                          (F)     (DEG/KT/KT) (MB)    (MI)  (FT/S)
SOUTHERN BUOY              50 42  180/  4/  4  998.0          1
HARRISON CRIB              63     130/ 12/ 13   N/A
BURNHAM HARBOR             58     160/  3/  8   N/A
CALUMET HARBOR             61     100/  5/  6  997.1F
BURNS HARBOR               62        CALM      998.6F
MICHIGAN CITY              59     280/  3/  4   N/A
MICHIGAN CITY 6N           54 49                N/A           1
ST. JOSEPH                 52 49  360/  8/ 10  997.4          1/ 3
$$

ILZ025>027-034>036-040-047-049-050-058-095>099-270500-
WEST-CENTRAL ILLINOIS

CITY           SKY/WX    TMP DP  RH WIND       PRES   REMARKS
QUINCY         RAIN      47  46  97 NW13      29.48F FOG
GALESBURG*     RAIN      47  46  94 NW9       29.46F
MACOMB*        RAIN      48  47  98 NW9       29.50F
JACKSONVILLE*  HVY RAIN  51  50  97 N12       29.44R
PITTSFIELD*    RAIN      49  48  97 NW17      29.48F
$$

ILZ028>032-037-038-041>044-048-051>054-059>061-270500-
CENTRAL ILLINOIS

CITY           SKY/WX    TMP DP  RH WIND       PRES   REMARKS
PONTIAC        RAIN      61  61  98 SE10      29.46F
BLOOMINGTON    LGT RAIN  59  58  96 S15       29.46F
DECATUR        LGT RAIN  59  59 100 SE12      29.48R
PEORIA         CLOUDY    51  50  96 NE7       29.44F
LACON*         LGT RAIN  50  50 100 N6        29.44F
LINCOLN*       RAIN      60  60 100 SE15G21   29.43F
SPRINGFIELD    LGT RAIN  61  59  93 S14       29.45S
TAYLORVILLE    LGT RAIN  58  58  99 SE15G22   29.45F
$$

ILZ033-039-045-046-055>057-062-063-270500-
EAST-CENTRAL ILLINOIS

CITY           SKY/WX    TMP DP  RH WIND       PRES   REMARKS
CHAMPAIGN      LGT RAIN  60  58  92 S14       29.49F
RANTOUL*       LGT RAIN  61  61  99 S7        29.48F
MATTOON        LGT RAIN  59  59 100 S9        29.51F
PARIS*         CLOUDY    60  60 100 SE5       29.52F
$$

ILZ079-100>102-270500-
SOUTHWEST ILLINOIS

CITY           SKY/WX    TMP DP  RH WIND       PRES   REMARKS
ALTON          RAIN      58  57  96 SE16G22   29.45R
BELLEVILLE     LGT RAIN  59  59 100 E21       29.41F FOG
CAHOKIA*       LGT RAIN  60  57  89 SE13G23   29.41F
SPARTA*        RAIN      59  57  94 E20G29    29.44F
$$

ILZ064>066-069>071-074>076-080>082-084>086-088>090-092>094-270500-
SOUTH-CENTRAL ILLINOIS

CITY           SKY/WX    TMP DP  RH WIND       PRES   REMARKS
CARBONDALE     NOT AVBL
CAIRO*         TSTM      58  58 100 SE8       29.58R
EFFINGHAM*     LGT RAIN  59  59 100 SE7       29.55S
MARION         RAIN      59  59 100 S6        29.57R
MT. VERNON     RAIN      59  58  96 SE6       29.56F
CENTRALIA*     RAIN      60  59  98 SE9       29.52F
SALEM*         RAIN      60  58  93 SE7       29.53F
METROPOLIS*    TSTM      59  58  98 CALM      29.59F
$$

ILZ067-068-072-073-078-083-087-091-270500-
SOUTHEAST ILLINOIS

CITY           SKY/WX    TMP DP  RH WIND       PRES   REMARKS
LAWRENCEVILLE  CLOUDY    61  59  93 W7        29.55F
FLORA*         LGT RAIN  60  59  96 S5        29.55F
FAIRFIELD*     LGT RAIN  59  59 100 CALM      29.54F
HARRISBURG*    TSTM      59  58  99 S7        29.59R
ROBINSON*      LGT RAIN  59  59  99 CALM      29.55R
CARMI*         RAIN      59  59 100 S5        29.57S
$$

ABBREVIATIONS USED IN REMARKS
   TC - TEMPERATURE IN CELSIUS
  WCI - WIND CHILL INDEX
   HX - HEAT INDEX
  VSB - VISIBILITY
$$





USA.gov is the U.S. government's official web portal to all federal, state and local government web resources and services.